Year,Month,Day,Hour,Minute,Value (Times are PST for windgust in km/hr)
2019,03,24,00,00,6.40
2019,03,24,00,44,6.40
2019,03,24,01,32,1.60
2019,03,24,01,33,1.60
2019,03,24,01,35,8.10
2019,03,24,01,36,6.40
2019,03,24,01,37,9.60
2019,03,24,02,10,1.60
2019,03,24,03,56,1.60
2019,03,24,04,04,4.80
2019,03,24,04,12,1.60
2019,03,24,05,47,1.60
2019,03,24,05,48,3.20
2019,03,24,05,55,4.80
2019,03,24,05,56,4.80
2019,03,24,06,13,1.60
2019,03,24,06,41,1.60
2019,03,24,06,44,3.20
2019,03,24,06,45,6.40
2019,03,24,07,00,6.40
2019,03,24,07,01,4.80
2019,03,24,07,25,1.60
2019,03,24,07,39,1.60
2019,03,24,07,40,6.40
2019,03,24,07,41,8.10
2019,03,24,07,42,6.40
2019,03,24,07,43,3.20
2019,03,24,07,44,1.60
2019,03,24,07,47,4.80
2019,03,24,08,03,1.60
2019,03,24,09,07,1.60
2019,03,24,09,09,11.30
2019,03,24,09,10,12.90
2019,03,24,09,11,11.30
2019,03,24,09,12,9.60
2019,03,24,09,13,9.60
2019,03,24,09,14,9.60
2019,03,24,09,15,1.60
2019,03,24,09,16,1.60
2019,03,24,09,17,3.20
2019,03,24,09,18,4.80
2019,03,24,09,19,1.60
2019,03,24,09,25,6.40
2019,03,24,09,26,8.10
2019,03,24,09,28,1.60
2019,03,24,09,30,1.60
2019,03,24,09,31,9.60
2019,03,24,09,32,11.30
2019,03,24,09,33,9.60
2019,03,24,09,34,8.10
2019,03,24,09,35,8.10
2019,03,24,09,36,8.10
2019,03,24,09,38,9.60
2019,03,24,09,39,8.10
2019,03,24,09,41,1.60
2019,03,24,09,42,1.60
2019,03,24,09,44,12.90
2019,03,24,09,45,8.10
2019,03,24,09,46,11.30
2019,03,24,09,50,1.60
2019,03,24,09,51,11.30
2019,03,24,09,52,8.10
2019,03,24,09,53,3.20
2019,03,24,09,54,12.90
2019,03,24,09,55,11.30
2019,03,24,09,57,4.80
2019,03,24,09,59,8.10
2019,03,24,10,00,14.50
2019,03,24,10,01,24.20
2019,03,24,10,02,17.70
2019,03,24,10,03,17.70
2019,03,24,10,04,17.70
2019,03,24,10,05,16.10
2019,03,24,10,06,14.50
2019,03,24,10,07,14.50
2019,03,24,10,08,19.30
2019,03,24,10,09,1.60
2019,03,24,10,10,14.50
2019,03,24,10,11,19.30
2019,03,24,10,12,12.90
2019,03,24,10,13,16.10
2019,03,24,10,14,16.10
2019,03,24,10,15,16.10
2019,03,24,10,16,19.30
2019,03,24,10,17,17.70
2019,03,24,10,18,19.30
2019,03,24,10,19,17.70
2019,03,24,10,20,11.30
2019,03,24,10,21,12.90
2019,03,24,10,22,14.50
2019,03,24,10,23,14.50
2019,03,24,10,24,17.70
2019,03,24,10,25,19.30
2019,03,24,10,26,16.10
2019,03,24,10,27,16.10
2019,03,24,10,28,14.50
2019,03,24,10,29,4.80
2019,03,24,10,30,17.70
2019,03,24,10,31,14.50
2019,03,24,10,32,19.30
2019,03,24,10,33,19.30
2019,03,24,10,34,19.30
2019,03,24,10,35,16.10
2019,03,24,10,36,19.30
2019,03,24,10,37,19.30
2019,03,24,10,38,20.90
2019,03,24,10,39,19.30
2019,03,24,10,40,14.50
2019,03,24,10,41,12.90
2019,03,24,10,42,19.30
2019,03,24,10,43,14.50
2019,03,24,10,44,14.50
2019,03,24,10,45,16.10
2019,03,24,10,46,19.30
2019,03,24,10,47,17.70
2019,03,24,10,48,19.30
2019,03,24,10,49,12.90
2019,03,24,10,50,14.50
2019,03,24,10,51,14.50
2019,03,24,10,52,16.10
2019,03,24,10,53,12.90
2019,03,24,10,54,19.30
2019,03,24,10,55,14.50
2019,03,24,10,56,17.70
2019,03,24,10,57,19.30
2019,03,24,10,58,17.70
2019,03,24,10,59,22.50
2019,03,24,11,00,16.10
2019,03,24,11,01,20.90
2019,03,24,11,02,19.30
2019,03,24,11,03,16.10
2019,03,24,11,04,20.90
2019,03,24,11,05,19.30
2019,03,24,11,06,14.50
2019,03,24,11,07,16.10
2019,03,24,11,08,19.30
2019,03,24,11,09,22.50
2019,03,24,11,10,24.20
2019,03,24,11,11,24.20
2019,03,24,11,12,14.50
2019,03,24,11,13,14.50
2019,03,24,11,14,16.10
2019,03,24,11,15,19.30
2019,03,24,11,16,22.50
2019,03,24,11,17,20.90
2019,03,24,11,18,19.30
2019,03,24,11,19,25.70
2019,03,24,11,20,14.50
2019,03,24,11,21,9.60
2019,03,24,11,22,19.30
2019,03,24,11,23,12.90
2019,03,24,11,24,11.30
2019,03,24,11,25,17.70
2019,03,24,11,26,17.70
2019,03,24,11,27,9.60
2019,03,24,11,28,16.10
2019,03,24,11,29,11.30
2019,03,24,11,30,22.50
2019,03,24,11,31,20.90
2019,03,24,11,32,19.30
2019,03,24,11,33,24.20
2019,03,24,11,34,24.20
2019,03,24,11,35,17.70
2019,03,24,11,36,16.10
2019,03,24,11,37,14.50
2019,03,24,11,38,17.70
2019,03,24,11,39,17.70
2019,03,24,11,40,17.70
2019,03,24,11,41,11.30
2019,03,24,11,42,19.30
2019,03,24,11,43,27.40
2019,03,24,11,44,17.70
2019,03,24,11,45,16.10
2019,03,24,11,46,16.10
2019,03,24,11,47,20.90
2019,03,24,11,48,19.30
2019,03,24,11,49,24.20
2019,03,24,11,50,25.70
2019,03,24,11,51,25.70
2019,03,24,11,52,19.30
2019,03,24,11,53,20.90
2019,03,24,11,54,17.70
2019,03,24,11,55,19.30
2019,03,24,11,56,16.10
2019,03,24,11,57,16.10
2019,03,24,11,58,11.30
2019,03,24,11,59,14.50
2019,03,24,12,00,11.30
2019,03,24,12,01,1.60
2019,03,24,12,02,14.50
2019,03,24,12,03,14.50
2019,03,24,12,04,6.40
2019,03,24,12,06,8.10
2019,03,24,12,07,11.30
2019,03,24,12,08,6.40
2019,03,24,12,09,11.30
2019,03,24,12,10,1.60
2019,03,24,12,12,11.30
2019,03,24,12,13,1.60
2019,03,24,12,14,16.10
2019,03,24,12,15,22.50
2019,03,24,12,16,16.10
2019,03,24,12,17,12.90
2019,03,24,12,18,17.70
2019,03,24,12,19,3.20
2019,03,24,12,20,14.50
2019,03,24,12,21,14.50
2019,03,24,12,22,20.90
2019,03,24,12,23,14.50
2019,03,24,12,24,12.90
2019,03,24,12,25,19.30
2019,03,24,12,26,20.90
2019,03,24,12,27,17.70
2019,03,24,12,28,19.30
2019,03,24,12,29,16.10
2019,03,24,12,30,20.90
2019,03,24,12,31,17.70
2019,03,24,12,32,22.50
2019,03,24,12,33,19.30
2019,03,24,12,34,17.70
2019,03,24,12,35,16.10
2019,03,24,12,36,16.10
2019,03,24,12,37,19.30
2019,03,24,12,38,19.30
2019,03,24,12,39,17.70
2019,03,24,12,40,12.90
2019,03,24,12,41,8.10
2019,03,24,12,42,17.70
2019,03,24,12,43,9.60
2019,03,24,12,44,16.10
2019,03,24,12,45,4.80
2019,03,24,12,46,9.60
2019,03,24,12,47,19.30
2019,03,24,12,48,14.50
2019,03,24,12,49,16.10
2019,03,24,12,50,24.20
2019,03,24,12,51,16.10
2019,03,24,12,52,20.90
2019,03,24,12,53,27.40
2019,03,24,12,54,27.40
2019,03,24,12,55,17.70
2019,03,24,12,56,25.70
2019,03,24,12,57,24.20
2019,03,24,12,58,14.50
2019,03,24,12,59,16.10
2019,03,24,13,00,12.90
2019,03,24,13,01,19.30
2019,03,24,13,02,22.50
2019,03,24,13,03,17.70
2019,03,24,13,04,14.50
2019,03,24,13,05,24.20
2019,03,24,13,06,25.70
2019,03,24,13,07,19.30
2019,03,24,13,08,6.40
2019,03,24,13,09,19.30
2019,03,24,13,10,24.20
2019,03,24,13,11,24.20
2019,03,24,13,12,24.20
2019,03,24,13,13,22.50
2019,03,24,13,14,17.70
2019,03,24,13,15,12.90
2019,03,24,13,16,16.10
2019,03,24,13,17,19.30
2019,03,24,13,18,19.30
2019,03,24,13,19,20.90
2019,03,24,13,20,17.70
2019,03,24,13,21,17.70
2019,03,24,13,22,33.80
2019,03,24,13,23,19.30
2019,03,24,13,24,27.40
2019,03,24,13,25,19.30
2019,03,24,13,26,25.70
2019,03,24,13,27,29.00
2019,03,24,13,28,33.80
2019,03,24,13,29,25.70
2019,03,24,13,30,35.40
2019,03,24,13,31,35.40
2019,03,24,13,32,40.20
2019,03,24,13,33,33.80
2019,03,24,13,34,29.00
2019,03,24,13,35,27.40
2019,03,24,13,36,24.20
2019,03,24,13,37,25.70
2019,03,24,13,38,25.70
2019,03,24,13,39,24.20
2019,03,24,13,40,35.40
2019,03,24,13,41,33.80
2019,03,24,13,42,19.30
2019,03,24,13,43,24.20
2019,03,24,13,44,33.80
2019,03,24,13,45,29.00
2019,03,24,13,46,38.60
2019,03,24,13,47,32.20
2019,03,24,13,48,27.40
2019,03,24,13,49,30.60
2019,03,24,13,50,30.60
2019,03,24,13,51,25.70
2019,03,24,13,52,29.00
2019,03,24,13,53,27.40
2019,03,24,13,54,38.60
2019,03,24,13,55,30.60
2019,03,24,13,56,29.00
2019,03,24,13,57,33.80
2019,03,24,13,58,29.00
2019,03,24,13,59,33.80
2019,03,24,14,00,32.20
2019,03,24,14,01,24.20
2019,03,24,14,02,22.50
2019,03,24,14,03,29.00
2019,03,24,14,04,33.80
2019,03,24,14,05,33.80
2019,03,24,14,06,33.80
2019,03,24,14,07,32.20
2019,03,24,14,08,25.70
2019,03,24,14,09,38.60
2019,03,24,14,10,33.80
2019,03,24,14,11,33.80
2019,03,24,14,12,38.60
2019,03,24,14,13,38.60
2019,03,24,14,14,33.80
2019,03,24,14,15,29.00
2019,03,24,14,16,25.70
2019,03,24,14,17,40.20
2019,03,24,14,18,30.60
2019,03,24,14,19,27.40
2019,03,24,14,20,27.40
2019,03,24,14,21,22.50
2019,03,24,14,22,25.70
2019,03,24,14,23,27.40
2019,03,24,14,24,27.40
2019,03,24,14,25,35.40
2019,03,24,14,26,30.60
2019,03,24,14,27,32.20
2019,03,24,14,28,25.70
2019,03,24,14,29,27.40
2019,03,24,14,30,30.60
2019,03,24,14,31,32.20
2019,03,24,14,32,33.80
2019,03,24,14,33,27.40
2019,03,24,14,34,29.00
2019,03,24,14,35,29.00
2019,03,24,14,36,19.30
2019,03,24,14,37,27.40
2019,03,24,14,38,20.90
2019,03,24,14,39,19.30
2019,03,24,14,40,20.90
2019,03,24,14,41,29.00
2019,03,24,14,42,24.20
2019,03,24,14,43,24.20
2019,03,24,14,44,25.70
2019,03,24,14,45,19.30
2019,03,24,14,46,32.20
2019,03,24,14,47,17.70
2019,03,24,14,48,25.70
2019,03,24,14,49,9.60
2019,03,24,14,50,16.10
2019,03,24,14,51,25.70
2019,03,24,14,52,16.10
2019,03,24,14,53,20.90
2019,03,24,14,54,29.00
2019,03,24,14,55,35.40
2019,03,24,14,56,6.40
2019,03,24,14,57,16.10
2019,03,24,14,58,30.60
2019,03,24,14,59,25.70
2019,03,24,15,00,24.20
2019,03,24,15,01,20.90
2019,03,24,15,02,16.10
2019,03,24,15,03,9.60
2019,03,24,15,04,14.50
2019,03,24,15,05,35.40
2019,03,24,15,06,17.70
2019,03,24,15,07,22.50
2019,03,24,15,08,19.30
2019,03,24,15,09,27.40
2019,03,24,15,10,22.50
2019,03,24,15,11,29.00
2019,03,24,15,12,29.00
2019,03,24,15,13,20.90
2019,03,24,15,14,12.90
2019,03,24,15,15,14.50
2019,03,24,15,17,32.20
2019,03,24,15,18,33.80
2019,03,24,15,19,16.10
2019,03,24,15,20,14.50
2019,03,24,15,21,14.50
2019,03,24,15,22,1.60
2019,03,24,15,23,27.40
2019,03,24,15,24,29.00
2019,03,24,15,25,19.30
2019,03,24,15,26,14.50
2019,03,24,15,27,27.40
2019,03,24,15,28,22.50
2019,03,24,15,29,24.20
2019,03,24,15,30,25.70
2019,03,24,15,31,11.30
2019,03,24,15,32,20.90
2019,03,24,15,33,12.90
2019,03,24,15,34,17.70
2019,03,24,15,36,1.60
2019,03,24,15,37,17.70
2019,03,24,15,38,16.10
2019,03,24,15,39,40.20
2019,03,24,15,40,30.60
2019,03,24,15,41,45.10
2019,03,24,15,42,29.00
2019,03,24,15,43,27.40
2019,03,24,15,44,29.00
2019,03,24,15,45,48.30
2019,03,24,15,46,17.70
2019,03,24,15,47,19.30
2019,03,24,15,48,40.20
2019,03,24,15,49,48.30
2019,03,24,15,50,17.70
2019,03,24,15,51,30.60
2019,03,24,15,52,32.20
2019,03,24,15,53,43.50
2019,03,24,15,54,29.00
2019,03,24,15,55,37.00
2019,03,24,15,56,40.20
2019,03,24,15,57,27.40
2019,03,24,15,58,25.70
2019,03,24,15,59,29.00
2019,03,24,16,00,20.90
2019,03,24,16,01,24.20
2019,03,24,16,02,38.60
2019,03,24,16,03,24.20
2019,03,24,16,04,40.20
2019,03,24,16,05,22.50
2019,03,24,16,06,32.20
2019,03,24,16,07,41.80
2019,03,24,16,08,41.80
2019,03,24,16,09,24.20
2019,03,24,16,10,33.80
2019,03,24,16,11,33.80
2019,03,24,16,12,38.60
2019,03,24,16,13,17.70
2019,03,24,16,14,29.00
2019,03,24,16,15,22.50
2019,03,24,16,16,24.20
2019,03,24,16,17,27.40
2019,03,24,16,18,20.90
2019,03,24,16,19,29.00
2019,03,24,16,20,30.60
2019,03,24,16,21,25.70
2019,03,24,16,22,4.80
2019,03,24,16,23,6.40
2019,03,24,16,24,11.30
2019,03,24,16,25,3.20
2019,03,24,16,26,16.10
2019,03,24,16,27,11.30
2019,03,24,16,29,4.80
2019,03,24,16,30,12.90
2019,03,24,16,31,17.70
2019,03,24,16,32,27.40
2019,03,24,16,33,33.80
2019,03,24,16,34,19.30
2019,03,24,16,35,11.30
2019,03,24,16,36,14.50
2019,03,24,16,37,32.20
2019,03,24,16,38,27.40
2019,03,24,16,39,29.00
2019,03,24,16,40,30.60
2019,03,24,16,41,22.50
2019,03,24,16,42,16.10
2019,03,24,16,43,29.00
2019,03,24,16,44,27.40
2019,03,24,16,45,35.40
2019,03,24,16,46,35.40
2019,03,24,16,47,25.70
2019,03,24,16,48,24.20
2019,03,24,16,49,32.20
2019,03,24,16,50,14.50
2019,03,24,16,51,16.10
2019,03,24,16,52,8.10
2019,03,24,16,53,25.70
2019,03,24,16,54,29.00
2019,03,24,16,55,22.50
2019,03,24,16,56,25.70
2019,03,24,16,57,25.70
2019,03,24,16,58,20.90
2019,03,24,16,59,16.10
2019,03,24,17,00,8.10
2019,03,24,17,01,24.20
2019,03,24,17,02,17.70
2019,03,24,17,03,20.90
2019,03,24,17,04,14.50
2019,03,24,17,05,19.30
2019,03,24,17,06,12.90
2019,03,24,17,07,8.10
2019,03,24,17,08,12.90
2019,03,24,17,09,1.60
2019,03,24,17,10,11.30
2019,03,24,17,12,24.20
2019,03,24,17,13,19.30
2019,03,24,17,14,24.20
2019,03,24,17,15,22.50
2019,03,24,17,16,22.50
2019,03,24,17,17,17.70
2019,03,24,17,18,14.50
2019,03,24,17,19,17.70
2019,03,24,17,20,17.70
2019,03,24,17,21,17.70
2019,03,24,17,22,12.90
2019,03,24,17,23,19.30
2019,03,24,17,24,11.30
2019,03,24,17,25,1.60
2019,03,24,17,26,11.30
2019,03,24,17,27,8.10
2019,03,24,17,28,29.00
2019,03,24,17,29,24.20
2019,03,24,17,30,29.00
2019,03,24,17,31,33.80
2019,03,24,17,32,11.30
2019,03,24,17,33,14.50
2019,03,24,17,34,11.30
2019,03,24,17,35,11.30
2019,03,24,17,36,14.50
2019,03,24,17,37,22.50
2019,03,24,17,38,17.70
2019,03,24,17,39,19.30
2019,03,24,17,40,20.90
2019,03,24,17,41,24.20
2019,03,24,17,42,25.70
2019,03,24,17,43,27.40
2019,03,24,17,44,16.10
2019,03,24,17,45,14.50
2019,03,24,17,46,1.60
2019,03,24,17,47,25.70
2019,03,24,17,48,25.70
2019,03,24,17,49,16.10
2019,03,24,17,50,27.40
2019,03,24,17,51,17.70
2019,03,24,17,52,20.90
2019,03,24,17,53,14.50
2019,03,24,17,54,14.50
2019,03,24,17,55,25.70
2019,03,24,17,56,16.10
2019,03,24,17,57,12.90
2019,03,24,17,58,17.70
2019,03,24,17,59,8.10
2019,03,24,18,00,22.50
2019,03,24,18,01,14.50
2019,03,24,18,02,19.30
2019,03,24,18,03,8.10
2019,03,24,18,04,14.50
2019,03,24,18,05,27.40
2019,03,24,18,06,16.10
2019,03,24,18,07,16.10
2019,03,24,18,08,24.20
2019,03,24,18,09,19.30
2019,03,24,18,10,17.70
2019,03,24,18,11,22.50
2019,03,24,18,12,20.90
2019,03,24,18,13,16.10
2019,03,24,18,14,33.80
2019,03,24,18,15,17.70
2019,03,24,18,16,25.70
2019,03,24,18,17,19.30
2019,03,24,18,18,22.50
2019,03,24,18,19,6.40
2019,03,24,18,20,1.60
2019,03,24,18,21,1.60
2019,03,24,18,22,20.90
2019,03,24,18,23,19.30
2019,03,24,18,24,25.70
2019,03,24,18,25,14.50
2019,03,24,18,26,20.90
2019,03,24,18,27,20.90
2019,03,24,18,28,24.20
2019,03,24,18,29,17.70
2019,03,24,18,30,12.90
2019,03,24,18,31,12.90
2019,03,24,18,32,11.30
2019,03,24,18,34,1.60
2019,03,24,18,35,1.60
2019,03,24,18,36,6.40
2019,03,24,18,37,8.10
2019,03,24,18,38,24.20
2019,03,24,18,39,22.50
2019,03,24,18,40,20.90
2019,03,24,18,41,17.70
2019,03,24,18,42,8.10
2019,03,24,18,43,3.20
2019,03,24,18,44,19.30
2019,03,24,18,45,14.50
2019,03,24,18,46,14.50
2019,03,24,18,47,6.40
2019,03,24,18,48,1.60
2019,03,24,18,52,14.50
2019,03,24,18,53,1.60
2019,03,24,18,54,8.10
2019,03,24,18,55,9.60
2019,03,24,19,00,8.10
2019,03,24,19,13,12.90
2019,03,24,19,27,1.60
2019,03,24,19,34,1.60
2019,03,24,19,47,3.20
2019,03,24,19,48,1.60
2019,03,24,19,53,1.60
2019,03,24,20,01,14.50
2019,03,24,20,02,9.60
2019,03,24,20,03,1.60
2019,03,24,20,06,11.30
2019,03,24,20,07,4.80
2019,03,24,20,17,1.60
2019,03,24,20,20,1.60
2019,03,24,20,24,8.10
2019,03,24,20,25,3.20
2019,03,24,20,27,6.40
2019,03,24,20,29,9.60
2019,03,24,20,30,11.30
2019,03,24,20,31,9.60
2019,03,24,20,32,6.40
2019,03,24,20,33,1.60
2019,03,24,20,34,1.60
2019,03,24,20,35,8.10
2019,03,24,20,37,1.60
2019,03,24,20,38,8.10
2019,03,24,20,39,9.60
2019,03,24,20,40,11.30
2019,03,24,20,41,9.60
2019,03,24,20,43,1.60
2019,03,24,20,59,8.10
2019,03,24,21,01,9.60
2019,03,24,21,02,9.60
2019,03,24,21,03,6.40
2019,03,24,21,05,4.80
2019,03,24,21,08,4.80
2019,03,24,21,12,11.30
2019,03,24,21,13,14.50
2019,03,24,21,14,16.10
2019,03,24,21,15,11.30
2019,03,24,21,16,16.10
2019,03,24,21,17,9.60
2019,03,24,21,18,9.60
2019,03,24,21,19,17.70
2019,03,24,21,20,11.30
2019,03,24,21,21,9.60
2019,03,24,21,23,14.50
2019,03,24,21,24,12.90
2019,03,24,21,27,1.60
2019,03,24,21,31,1.60
2019,03,24,21,32,1.60
2019,03,24,21,52,3.20
2019,03,24,21,53,6.40
2019,03,24,21,54,6.40
2019,03,24,21,55,1.60
2019,03,24,22,04,1.60
2019,03,24,22,05,9.60
2019,03,24,22,06,6.40
2019,03,24,22,07,1.60
2019,03,24,22,11,1.60
2019,03,24,22,14,1.60
2019,03,24,22,15,1.60
2019,03,24,23,36,1.60
2019,03,24,23,48,4.80
2019,03,24,23,49,6.40
